Hearne, TX

11:41 PM CST on December 10, 2019 (GMT -0600)
Hearne

Weather History for KLHB - November, 2019

Change the Weather History Date:

Tuesday, November 19, 2019

  Actual Average (KCLL) Record (KCLL)
Temperature  
Mean Temperature 60 °F -  
Max Temperature 78 °F 67 °F 86 °F (1950)
Min Temperature 41 °F 48 °F 28 °F (1903)
Degree Days  
Heating Degree Days 6    
Growing Degree Days 10 (Base 50)    
Moisture  
Dew Point 49 °F    
Average Humidity 73    
Maximum Humidity 95    
Minimum Humidity 39    
Precipitation  
Precipitation 0.00 in - - ()
Sea Level Pressure  
Sea Level Pressure 29.98 in    
Wind  
Wind Speed 1 mph ()    
Max Wind Speed 9 mph    
Max Gust Speed -    
Visibility 10.0 miles    
Events      
Averages and records for this station are not official NWS values.
T = Trace of Precipitation, MM = Missing Value Source: Averaged Metar Reports

Daily Weather History Graph

Daily Weather History Graph

Search for Another Location

Airport or City:

Astronomy

Nov. 19, 2019 Rise Set
Actual Time 6:56 AM CST 5:27 PM CST
Civil Twilight 6:30 AM CST 5:52 PM CST
Nautical Twilight 6:01 AM CST 6:22 PM CST
Astronomical Twilight 5:32 AM CST 6:50 PM CST
Moon No Moon Rise 1:10 PM CST (11/19)
Length of Visible Light 11h 22m
Length of Day
10h 30m
Waning Gibbous, 51% of the Moon is Illuminated
Nov 19
Waning Gibbous
Nov 19
Last Quarter
Nov 26
New
Dec 4
First Quarter
Dec 11
Full

Hourly Weather History & Observations

Time (CST) Temp. Dew Point Humidity Pressure Visibility Wind Dir Wind Speed Gust Speed Precip Events Conditions
12:15 AM 45.0 °F 42.4 °F 91% 29.96 in 10.0 mi Calm Calm - N/A   Clear
12:35 AM 44.6 °F 42.1 °F 91% 29.96 in 10.0 mi Calm Calm - N/A   Clear
12:55 AM 44.8 °F 42.4 °F 91% 29.96 in 10.0 mi Calm Calm - N/A   Clear
1:15 AM 43.5 °F 41.4 °F 92% 29.97 in 10.0 mi Calm Calm - N/A   Clear
1:35 AM 44.4 °F 41.9 °F 91% 29.96 in 10.0 mi Calm Calm - N/A   Clear
1:55 AM 43.7 °F 41.4 °F 91% 29.97 in 10.0 mi Calm Calm - N/A   Clear
2:15 AM 43.3 °F 41.4 °F 93% 29.97 in 10.0 mi Calm Calm - N/A   Clear
2:35 AM 44.2 °F 42.1 °F 92% 29.97 in 10.0 mi Calm Calm - N/A   Clear
2:55 AM 43.3 °F 41.2 °F 92% 29.97 in 10.0 mi Calm Calm - N/A   Clear
3:15 AM 43.7 °F 41.7 °F 93% 29.97 in 10.0 mi Calm Calm - N/A   Clear
3:35 AM 43.0 °F 41.2 °F 93% 29.97 in 10.0 mi Calm Calm - N/A   Clear
4:15 AM 43.0 °F 41.0 °F 93% 29.97 in 10.0 mi Calm Calm - N/A   Clear
4:35 AM 42.8 °F 40.8 °F 93% 29.97 in 10.0 mi Calm Calm - N/A   Clear
4:55 AM 41.9 °F 40.3 °F 94% 29.98 in 10.0 mi Calm Calm - N/A   Clear
5:15 AM 41.9 °F 40.3 °F 94% 29.98 in 10.0 mi Calm Calm - N/A   Clear
5:35 AM 41.9 °F 40.5 °F 95% 29.98 in 10.0 mi Calm Calm - N/A   Clear
5:55 AM 42.1 °F 40.6 °F 95% 29.99 in 10.0 mi Calm Calm - N/A   Clear
6:15 AM 41.7 °F 39.9 °F 93% 29.99 in 10.0 mi Calm Calm - N/A   Clear
6:35 AM 41.7 °F 39.7 °F 93% 30.00 in 10.0 mi Calm Calm - N/A   Clear
6:55 AM 41.4 °F 39.9 °F 95% 30.01 in 10.0 mi Calm Calm - N/A   Clear
7:15 AM 41.4 °F 39.4 °F 93% 30.02 in 10.0 mi Calm Calm - N/A   Clear
7:35 AM 42.8 °F 41.0 °F 93% 30.03 in 10.0 mi Calm Calm - N/A   Clear
7:55 AM 45.5 °F 42.8 °F 90% 30.03 in 10.0 mi Calm Calm - N/A   Clear
8:35 AM 51.6 °F 46.8 °F 83% 30.03 in 10.0 mi Calm Calm - N/A   Clear
8:55 AM 55.2 °F 49.1 °F 80% 30.03 in 10.0 mi Calm Calm - N/A   Clear
9:15 AM 57.4 °F 50.7 °F 78% 30.04 in 10.0 mi Calm Calm - N/A   Clear
9:35 AM 60.4 °F 52.2 °F 74% 30.03 in 10.0 mi Calm Calm - N/A   Clear
9:55 AM 63.1 °F 52.7 °F 69% 30.03 in 10.0 mi Calm Calm - N/A   Clear
10:15 AM 65.1 °F 53.1 °F 65% 30.03 in 10.0 mi South 3.5 mph - N/A   Clear
10:35 AM 66.4 °F 54.3 °F 65% 30.03 in 10.0 mi SSW 3.5 mph - N/A   Clear
10:55 AM 68.0 °F 55.4 °F 64% 30.03 in 10.0 mi Calm Calm - N/A   Clear
11:15 AM 70.3 °F 56.3 °F 61% 30.02 in 10.0 mi Calm Calm - N/A   Clear
11:35 AM 72.3 °F 56.8 °F 58% 30.01 in 10.0 mi Calm Calm - N/A   Clear
11:55 AM 73.6 °F 57.2 °F 56% 30.00 in 10.0 mi Calm Calm - N/A   Clear
12:15 PM 75.4 °F 57.7 °F 54% 29.99 in 10.0 mi Calm Calm - N/A   Clear
12:35 PM 75.7 °F 57.4 °F 53% 29.98 in 10.0 mi SSE 3.5 mph - N/A   Clear
12:55 PM 76.3 °F 56.7 °F 51% 29.97 in 10.0 mi SSE 6.9 mph - N/A   Clear
1:15 PM 78.3 °F 56.1 °F 46% 29.97 in 10.0 mi SE 9.2 mph - N/A   Clear
1:55 PM 78.8 °F 52.0 °F 39% 29.96 in 10.0 mi SE 8.1 mph - N/A   Clear
2:15 PM 77.5 °F 51.4 °F 40% 29.95 in 10.0 mi SSE 9.2 mph - N/A   Clear
2:35 PM 78.4 °F 53.2 °F 42% 29.95 in 10.0 mi South 8.1 mph - N/A   Clear
2:55 PM 78.1 °F 51.1 °F 39% 29.95 in 10.0 mi SSE 8.1 mph - N/A   Clear
3:15 PM 76.1 °F 53.4 °F 45% 29.95 in 10.0 mi SSE 6.9 mph - N/A   Clear
3:35 PM 76.3 °F 53.6 °F 45% 29.95 in 10.0 mi SSE 5.8 mph - N/A   Clear
3:55 PM 75.6 °F 52.9 °F 45% 29.95 in 10.0 mi SSE 9.2 mph - N/A   Clear
4:15 PM 74.8 °F 53.2 °F 47% 29.95 in 10.0 mi SSE 6.9 mph - N/A   Clear
4:35 PM 73.0 °F 53.6 °F 50% 29.94 in 10.0 mi SSE 6.9 mph - N/A   Clear
4:55 PM 72.3 °F 53.6 °F 52% 29.95 in 10.0 mi SSE 6.9 mph - N/A   Clear
5:15 PM 71.6 °F 54.1 °F 54% 29.95 in 10.0 mi SE 4.6 mph - N/A   Clear
5:35 PM 70.2 °F 53.8 °F 56% 29.95 in 10.0 mi SE 3.5 mph - N/A   Clear
6:15 PM 68.0 °F 53.6 °F 60% 29.96 in 10.0 mi Calm Calm - N/A   Clear
6:35 PM 64.9 °F 53.4 °F 66% 29.96 in 10.0 mi Calm Calm - N/A   Clear
6:55 PM 64.2 °F 53.4 °F 68% 29.97 in 10.0 mi Calm Calm - N/A   Clear
7:15 PM 63.7 °F 53.6 °F 70% 29.97 in 10.0 mi Calm Calm - N/A   Clear
7:35 PM 63.1 °F 53.6 °F 71% 29.97 in 10.0 mi Calm Calm - N/A   Clear
7:55 PM 63.9 °F 53.2 °F 68% 29.97 in 10.0 mi SE 3.5 mph - N/A   Clear
8:35 PM 60.3 °F 52.2 °F 75% 29.98 in 10.0 mi SSE 3.5 mph - N/A   Clear
9:15 PM 61.2 °F 52.7 °F 74% 29.99 in 10.0 mi SE 5.8 mph - N/A   Clear
9:35 PM 61.2 °F 52.7 °F 74% 29.99 in 10.0 mi SE 5.8 mph - N/A   Clear
9:55 PM 60.4 °F 52.7 °F 76% 29.99 in 10.0 mi SE 4.6 mph - N/A   Clear
10:15 PM 59.9 °F 52.7 °F 77% 30.00 in 10.0 mi SE 4.6 mph - N/A   Clear
10:35 PM 59.2 °F 52.7 °F 79% 30.00 in 10.0 mi SE 4.6 mph - N/A   Clear
10:55 PM 59.2 °F 53.1 °F 80% 30.00 in 10.0 mi SE 5.8 mph - N/A   Clear
11:15 PM 59.2 °F 53.6 °F 82% 30.00 in 10.0 mi SE 5.8 mph - N/A   Clear
11:35 PM 58.6 °F 53.8 °F 84% 30.00 in 10.0 mi SE 4.6 mph - N/A   Clear
11:55 PM 58.8 °F 54.7 °F 86% 30.00 in 10.0 mi SE 5.8 mph - N/A   Scattered Clouds